Wind_Speed
47 45 42 42 40 44 41 43 45 40 43 48 52 54 55 55 56 57 55 55 56 58 54 51 54 52 50 52 53 53 52 52 54 58 59 56 58 53
39 39 38 43 45 46 50 53 50 49 49 54 55 56 55 56 59 61 61 60 58 55 55 57 53 58 54 58 58 61 59 60 58 61 57 61 60 63
45 37 38 41 38 40 44 46 45 47 47 53 56 55 55 57 61 64 65 61 60 58 58 59 58 59 61 60 61 58 65 69 63 63 64 67 65 70
48 50 48 44 46 51 49 47 50 48 49 53 56 57 58 60 63 65 68 66 65 66 66 63 63 66 60 63 61 60 65 63 66 70 69 72 73 77
61 58 56 55 56 55 58 59 59 58 56 58 56 60 60 63 65 68 72 74 71 73 73 72 68 71 72 70 63 70 72 73 77 79 79 75 78 76
69 64 60 60 60 63 67 66 66 63 63 62 62 61 68 72 73 78 80 80 81 75 69 77 76 77 82 80 76 73 78 78 75 75 78 76 78 80
64 67 64 59 64 68 71 74 75 62 65 70 63 66 74 80 73 79 81 84 80 80 77 81 81 81 80 79 83 83 83 87 83 92 87 84 85 84
55 47 60 61 68 67 70 66 58 61 61 65 74 69 69 68 68 65 82 91 76 79 89 86 82 82 80 81 86 86 89 94 98 99 92 84 88 83
75 85 79 73 68 61 55 62 70 69 67 68 58 71 72 75 71 58 66 74 91 97 99 85 83 85 84 89 94 96 101 103 102 107 104 90 86 90
98 100 95 91 86 53 92 87 87 77 69 60 56 53 62 79 79 85 93 101 100 85 86 90 92 93 89 95 98 101 102 105 110 103 76 65 71 77
99 99 100 96 94 93 95 84 97 90 80 74 76 68 82 89 91 88 75 83 93 97 97 101 98 96 102 101 100 103 108 115 101 89 63 58 58 57
107 105 106 107 105 107 105 104 104 104 96 96 105 100 103 82 88 96 108 112 100 95 101 100 98 100 106 105 109 112 112 96 86 80 62 60 62 66
117 115 112 116 116 118 116 109 111 114 110 109 108 100 102 105 114 114 112 110 102 101 105 105 104 113 116 111 111 113 98 95 90 85 71 67 74 74
126 121 123 124 123 122 125 121 120 122 120 116 116 117 116 117 107 104 107 104 104 105 106 108 110 113 117 118 117 109 100 93 96 85 78 73 78 83
134 132 131 133 131 132 133 127 119 123 122 119 124 109 97 97 95 97 101 106 104 107 109 116 118 119 116 116 119 110 102 101 87 74 75 80 81 83
117 125 124 120 116 106 101 102 107 106 101 95 87 95 95 102 99 103 107 107 111 113 114 116 115 113 116 111 110 106 107 109 82 71 75 83 81 83
90 95 100 103 103 93 96 96 94 88 89 92 97 101 104 110 111 114 113 115 111 112 114 115 112 112 112 109 113 105 109 94 74 70 78 82 83 83
85 86 95 94 98 102 87 87 88 88 88 91 91 92 96 98 102 106 109 109 110 110 107 110 115 108 109 112 112 105 101 79 70 73 79 82 83 84
86 86 84 89 86 82 83 86 86 92 93 97 96 98 99 101 104 106 108 112 113 111 114 116 114 116 113 123 103 93 77 70 69 72 76 81 83 81
92 94 93 87 87 90 89 92 100 102 105 105 109 110 108 104 103 98 107 108 109 109 113 113 113 114 113 91 82 78 70 70 72 73 74 77 80 81
97 95 96 85 90 88 101 102 99 101 102 101 103 96 100 95 98 103 106 111 113 113 115 115 118 103 84 76 76 73 67 68 69 72 73 75 77 79
100 96 95 95 93 93 97 97 103 106 108 108 102 103 104 98 101 107 112 114 117 117 110 106 88 76 72 72 70 68 70 72 76 79 81 83 86 90
93 91 94 96 99 101 102 103 105 105 105 110 109 109 107 110 103 110 110 109 107 99 91 83 75 72 73 69 69 75 79 83 85 88 90 93 94 95
Wind_Direction
256 256 257 264 267 254 253 266 272 269 270 275 276 275 276 282 283 285 288 291 293 290 288 287 286 295 291 293 293 293 295 298 298 294 291 301 296 301
252 252 255 260 263 265 265 270 276 277 275 272 277 277 279 283 286 286 287 290 287 285 285 287 291 291 293 293 290 287 293 296 294 296 293 299 292 295
240 246 253 254 260 267 269 271 272 274 273 274 277 277 280 281 284 284 284 285 283 285 287 288 286 283 288 288 288 289 292 290 287 291 292 293 292 291
244 249 251 254 258 261 267 272 273 271 272 273 276 278 280 281 285 282 282 282 284 287 290 289 283 283 286 287 285 288 296 294 293 293 292 292 292 290
255 255 254 259 261 263 265 270 271 274 273 272 275 277 278 281 281 279 281 283 283 287 288 288 290 288 284 285 282 286 291 290 290 292 295 293 300 299
266 259 259 261 264 267 266 265 266 270 272 273 275 275 276 281 280 280 282 281 282 282 285 286 286 285 284 287 281 282 292 290 293 292 294 292 293 299
254 257 260 268 272 275 274 268 267 276 286 275 273 285 288 281 282 285 283 285 280 282 280 284 286 284 283 283 279 285 285 290 289 293 290 290 290 292
243 251 255 264 265 270 263 264 265 276 276 277 288 290 285 274 282 295 281 268 275 285 285 286 283 284 283 284 284 288 290 291 292 292 292 285 288 285
246 248 250 255 256 270 262 254 259 279 278 273 281 272 274 281 274 278 271 265 279 283 282 281 282 282 285 285 292 289 291 292 293 296 293 284 279 281
251 252 255 255 251 255 258 263 266 273 282 269 261 266 253 267 276 274 276 275 278 276 279 287 286 286 289 290 289 288 288 289 291 297 288 285 280 280
252 253 253 254 256 252 253 251 264 270 264 267 275 266 260 268 273 265 262 264 273 281 284 286 286 284 287 286 285 285 288 291 293 297 286 270 265 270
255 256 255 254 257 257 259 262 264 267 265 262 268 267 268 261 261 265 273 275 279 278 282 281 280 282 287 284 285 290 293 289 292 299 281 261 264 262
254 255 256 258 257 258 257 260 265 264 267 270 269 265 262 263 268 270 271 272 275 279 278 282 281 285 286 287 288 293 292 295 292 294 284 262 264 258
253 256 258 257 259 260 258 257 261 262 264 267 265 266 264 268 267 268 268 274 276 276 280 281 283 284 287 290 291 292 293 296 295 291 287 263 259 264
247 251 253 254 258 257 258 259 260 258 261 262 263 267 264 262 265 268 268 269 273 276 280 281 283 285 287 289 290 291 293 296 292 283 277 268 265 264
251 251 252 253 254 256 257 253 258 259 258 257 258 258 258 260 260 266 269 274 274 276 280 280 284 284 286 287 288 293 297 297 286 277 268 268 267 264
250 248 249 250 250 255 256 253 252 251 252 254 257 261 262 262 266 267 269 272 274 277 278 279 283 284 286 285 288 291 294 289 278 270 265 265 267 264
249 245 246 249 251 253 249 250 255 256 254 253 257 261 263 264 267 269 270 272 275 276 279 284 284 285 287 287 290 290 292 276 271 268 264 264 268 269
246 242 246 247 254 242 241 248 250 256 255 255 258 261 264 266 267 268 270 272 276 277 280 280 279 284 287 287 287 288 277 272 270 269 266 266 267 273
250 243 243 246 246 247 243 247 250 252 255 257 260 260 265 270 272 273 274 276 276 275 277 279 284 285 288 282 281 276 271 272 270 271 270 267 269 269
248 246 246 247 251 252 247 249 251 257 259 262 264 265 270 267 268 273 271 278 280 278 280 283 283 284 278 277 273 269 269 271 272 270 268 270 271 272
244 244 246 244 248 252 256 255 254 257 257 261 261 263 266 268 268 271 275 279 279 280 279 283 278 274 273 274 274 274 275 274 276 275 275 276 275 275
243 243 244 247 250 250 254 254 256 258 261 258 260 266 267 269 272 274 278 282 280 278 280 277 272 268 266 270 272 270 269 270 271 272 274 275 276 277
Height
10680 10683 10686 10686 10689 10689 10692 10694 10698 10700 10697 10693 10691 10692 10692 10691 10690 10691 10691 10691 10689 10686 10683 10680 10676 10674 10671 10667 10664 10660 10657 10654 10651 10646 10642 10639 10636 10632
10668 10670 10673 10675 10679 10681 10682 10683 10687 10690 10692 10686 10684 10684 10685 10683 10679 10678 10678 10679 10677 10675 10673 10670 10666 10662 10657 10655 10652 10649 10646 10641 10637 10634 10631 10627 10625 10622
10655 10658 10660 10661 10665 10668 10669 10671 10674 10676 10680 10676 10677 10677 10678 10676 10672 10669 10666 10664 10662 10663 10661 10659 10654 10650 10645 10641 10638 10635 10632 10629 10624 10622 10619 10614 10611 10607
10639 10643 10646 10648 10652 10653 10654 10658 10658 10661 10664 10664 10664 10664 10666 10666 10662 10658 10654 10650 10648 10647 10646 10644 10639 10634 10631 10628 10624 10620 10618 10615 10613 10610 10605 10602 10598 10593
10624 10629 10632 10634 10636 10640 10641 10642 10643 10642 10646 10649 10650 10648 10645 10649 10649 10644 10642 10638 10637 10632 10630 10628 10623 10619 10617 10613 10610 10606 10603 10601 10599 10595 10591 10585 10581 10577
10613 10616 10618 10620 10620 10622 10624 10624 10625 10629 10627 10629 10631 10633 10630 10627 10625 10623 10621 10622 10623 10620 10614 10611 10609 10603 10599 10597 10594 10590 10586 10582 10581 10579 10576 10570 10564 10560
10597 10602 10605 10607 10605 10605 10605 10607 10608 10612 10612 10611 10613 10618 10615 10610 10605 10602 10603 10603 10603 10603 10595 10593 10589 10584 10582 10577 10575 10572 10569 10563 10562 10561 10558 10553 10548 10543
10578 10573 10587 10594 10588 10587 10585 10587 10589 10590 10592 10592 10591 10596 10591 10593 10589 10592 10589 10586 10582 10579 10575 10572 10568 10564 10562 10557 10554 10552 10550 10545 10540 10536 10537 10532 10528 10523
10554 10556 10562 10571 10575 10577 10568 10568 10569 10572 10572 10578 10573 10575 10582 10574 10574 10574 10566 10559 10563 10562 10553 10553 10547 10543 10540 10536 10534 10530 10525 10522 10516 10510 10506 10501 10502 10501
10532 10539 10545 10549 10556 10563 10546 10553 10552 10554 10552 10555 10562 10560 10562 10551 10546 10547 10548 10550 10542 10543 10536 10532 10526 10521 10518 10515 10513 10508 10503 10497 10490 10484 10478 10480 10478 10479
10509 10516 10521 10522 10525 10530 10530 10544 10532 10537 10538 10535 10537 10540 10542 10540 10530 10527 10524 10521 10519 10519 10517 10509 10505 10500 10497 10494 10491 10485 10482 10476 10470 10463 10458 10461 10460 10459
10478 10484 10491 10497 10498 10501 10504 10511 10512 10515 10513 10518 10515 10522 10517 10514 10508 10506 10503 10496 10498 10495 10494 10489 10485 10477 10475 10473 10466 10462 10461 10450 10447 10443 10440 10443 10440 10438
10449 10455 10462 10467 10472 10475 10481 10487 10488 10484 10486 10492 10492 10493 10492 10492 10481 10479 10474 10472 10475 10474 10466 10465 10458 10453 10450 10446 10439 10438 10434 10428 10425 10422 10420 10421 10418 10414
10422 10426 10433 10442 10447 10450 10455 10462 10461 10459 10464 10463 10466 10464 10462 10465 10461 10452 10450 10451 10450 10446 10442 10439 10436 10427 10423 10422 10415 10413 10409 10403 10400 10397 10395 10396 10395 10394
10400 10407 10411 10417 10420 10420 10423 10430 10426 10432 10434 10432 10437 10438 10435 10435 10434 10432 10429 10428 10425 10420 10415 10413 10410 10402 10400 10398 10389 10387 10384 10380 10373 10370 10370 10372 10372 10371
10367 10374 10379 10383 10385 10386 10389 10395 10395 10401 10404 10406 10408 10409 10411 10408 10408 10406 10404 10401 10397 10395 10390 10388 10383 10377 10375 10369 10364 10359 10354 10353 10350 10346 10347 10348 10349 10349
10333 10339 10346 10350 10356 10362 10366 10368 10370 10372 10376 10380 10382 10383 10382 10381 10379 10378 10376 10374 10371 10368 10365 10360 10356 10351 10348 10344 10339 10336 10331 10325 10324 10323 10325 10326 10326 10327
10305 10312 10318 10325 10330 10337 10341 10344 10347 10350 10352 10354 10355 10355 10355 10354 10352 10352 10351 10348 10345 10341 10337 10330 10329 10323 10319 10314 10312 10307 10305 10301 10300 10301 10303 10305 10305 10304
10279 10284 10291 10298 10304 10310 10315 10320 10323 10323 10326 10329 10330 10329 10328 10327 10326 10325 10325 10321 10318 10313 10309 10305 10301 10297 10290 10290 10282 10279 10277 10277 10279 10281 10283 10282 10282 10280
10248 10257 10264 10272 10280 10285 10289 10293 10295 10299 10299 10302 10301 10303 10303 10302 10301 10300 10298 10294 10290 10285 10281 10278 10276 10269 10261 10255 10254 10254 10254 10257 10260 10260 10261 10261 10258 10256
10219 10229 10240 10247 10255 10259 10263 10266 10268 10272 10274 10275 10277 10278 10278 10279 10276 10274 10273 10269 10263 10258 10253 10250 10248 10239 10233 10231 10231 10233 10233 10236 10237 10238 10238 10237 10234 10231
10192 10205 10213 10221 10227 10232 10237 10240 10244 10245 10249 10249 10249 10251 10252 10250 10250 10249 10247 10241 10235 10230 10228 10223 10218 10215 10211 10211 10210 10210 10210 10214 10215 10214 10213 10213 10209 10205
10172 10179 10186 10196 10202 10207 10209 10214 10216 10217 10219 10219 10223 10224 10226 10225 10223 10221 10217 10211 10207 10203 10200 10199 10198 10196 10196 10194 10192 10190 10189 10189 10190 10189 10188 10185 10182 10179